Voltar ao catálogo

BEIJING-3C 03

AtivoCiênciaSSO
NORAD 59807·PAYLOAD·🇨🇳 China
Este nome de satélite ainda não foi confirmado por fontes oficiais.

Lançado May 20, 2024 de Taiyuan Satellite Launch Center

Loading…

Próximas Passagens (próximas 24 horas)

TLE

AtualizadoSource: Space-Track

Época: Sep 14, 2026, 22:35 UTC

1 59807U 24094C   26257.94116176  .00005627  00000-0  28880-3 0  9994
2 59807  97.3841 326.8515 0002171  61.6485 298.4968 15.16909585128763

Acompanhe BEIJING-3C 03 em tempo real com AllMySat

Download on the App Store